Location: 10033 Water Well
(34.0865°N, 106.8959°W)
Time: 16:58:02
(UTC+00:00)

PSLV R/B - Pass Details

Date: 13 January 2026
Orbit: 560 x 588 km, 98.0° (Epoch: 11 February)

Event Time Altitude Azimuth Distance (km) Brightness Sun altitude
Rises 01:46:30 0° 162° (SSE) 2,782 6.9 -17.9°
Reaches altitude 10° 01:48:38 10° 161° (SSE) 1,892 6.0 -18.3°
Maximum altitude 01:52:44 74° 76° (ENE) 612 3.3 -19.1°
Drops below altitude 10° 01:56:53 10° 352° (N) 1,917 6.0 -20.0°
Sets 01:59:03 0° 350° (N) 2,823 6.9 -20.4°
